[[{"header":{"parameterUnit":"m.s-1","parameterCategory":1,"la1":30.2991,"la2":30.254,"lo1":-89.0895,"lo2":-89.0444,"dy":0.0017,"dx":0.0017,"nx":28,"ny":28,"refTime":"2024-06-21T09:00:00:Z","depth":0,"parameterNumber":2,"parameterNumberName":"U-component_of_WINDS"},"data":[0,0,0,0,0,0,0,0,0,0,0,0,0,0,0,0,0,0,0,0,0,0,0,0,0,0,0,0,0,0,0,0,0,0,0,0,0,0,0,0,0,0,0,0,0,0,0,0,0,0,0,0,0,0,0,0,0,0,2.138,2.138,0,2.142,2.142,2.1421,2.1379,2.1377,2.1376,2.1374,2.1416,2.1418,2.1421,0,0,0,0,0,0,0,0,0,0,0,0,0,2.1266,2.1269,2.138,2.138,2.1381,2.142,2.142,2.1421,2.1379,2.1377,2.1375,2.1373,2.1415,2.1418,2.1421,0,0,0,0,0,0,0,0,0,0,0,0,0,2.1312,2.127,2.138,2.1365,2.1364,2.142,2.142,2.1421,2.138,2.1377,2.1375,2.1372,2.1414,2.1417,2.1421,2.1494,0,0,2.1433,2.1435,0,0,0,0,0,0,0,0,2.131,2.1316,2.1366,2.1366,2.1365,2.1392,2.1395,2.1446,2.138,2.1374,2.1374,2.1371,2.141,2.1414,2.1427,2.1496,2.1498,2.1434,2.1436,2.1438,2.1439,0,0,0,0,0,0,0,2.1306,2.1314,2.1396,2.1367,2.1366,2.1356,2.1359,2.1405,2.1405,2.1374,2.1371,2.1376,2.1409,2.1423,2.1427,2.1499,2.1434,2.1437,2.1439,2.1441,2.1626,2.1629,0,0,0,0,0,0,2.1305,2.1312,2.1394,2.1397,2.1331,2.136,2.1364,2.1386,2.1404,2.1405,2.1378,2.1374,2.1417,2.1423,2.1429,2.1512,2.1438,2.1441,2.1444,2.1624,2.1627,2.163,0,0,0,0,0,0,2.1303,2.1313,2.1393,2.1354,2.1363,2.1364,2.1389,2.1388,2.1402,2.1407,2.1407,2.1393,2.1416,2.1423,2.1477,2.1513,2.1443,2.1447,2.1621,2.1625,2.1628,2.1682,0,0,0,0,0,0,2.13,2.1312,2.134,2.1355,2.1365,2.1441,2.1391,2.139,2.1409,2.1404,2.1421,2.1422,2.1414,2.1472,2.1481,2.1517,2.145,2.1618,2.1623,2.1627,2.1677,2.1687,2.1696,0,0,0,0,0,2.1296,2.1355,2.1342,2.1352,2.14,2.1444,2.145,2.144,2.1412,2.1439,2.1443,2.1421,2.1508,2.1478,2.1488,2.1526,2.1615,2.1621,2.1627,2.1673,2.1685,2.1696,0,0,0,0,0,0,2.1345,2.1356,2.1342,2.1408,2.1425,2.1436,2.1471,2.1454,2.148,2.1474,2.1461,2.1466,2.1523,2.153,2.1496,2.1596,2.1557,2.1565,2.1588,2.16,2.161,2.1606,2.1453,0,0,0,0,0,2.1364,2.1398,2.1406,2.1463,2.1472,2.147,2.1489,2.148,2.1497,2.1504,2.1512,2.1529,2.156,2.1581,2.1611,2.1679,2.168,2.171,2.1719,2.1727,2.1733,2.1767,2.1779,2.1649,2.1649,2.1649,0,0,2.1402,2.1412,2.1435,2.1473,2.1485,2.152,2.1477,2.1516,2.1541,2.151,2.1561,2.1567,2.1586,2.1647,2.1674,2.1655,2.177,2.1734,2.1741,2.1743,2.1774,2.1787,2.1798,2.1653,2.1652,2.1651,0,0,2.1489,2.1502,2.1549,2.1562,2.158,2.1579,2.159,2.1604,2.1606,2.1657,2.1634,2.1664,2.1719,2.1732,2.1746,2.1837,2.1817,2.1847,2.1896,2.1929,2.1939,2.1948,2.1977,2.1988,2.1854,2.1854,2.1854,0,2.1535,2.1586,2.1575,2.1615,2.1632,2.1605,2.1651,2.1665,2.1692,2.1704,2.1682,2.1748,2.1759,2.1821,2.1843,2.1857,2.1868,2.1844,2.1938,2.1947,2.1955,2.1983,2.1995,2.1857,2.1857,2.1856,2.1856,0,2.164,2.1676,2.1712,2.1737,2.1758,2.1802,2.1796,2.1819,2.1808,2.1808,2.1859,2.1871,2.1901,2.1916,2.1906,2.1976,2.1963,2.194,2.19,2.1971,2.1997,2.2008,2.1862,2.1861,2.186,2.1859,0,0,2.1759,2.1777,2.179,2.18,2.1818,2.1846,2.1887,2.1916,2.1934,2.1954,2.1987,2.2033,2.2011,2.2027,2.2019,2.2049,2.2116,2.2022,2.2022,2.2036,2.219,2.2205,2.2218,2.2104,2.2106,2.2107,2.2188,0,2.1844,2.1915,2.1906,2.1974,2.2006,2.198,2.2016,2.2031,2.2032,2.2059,2.206,2.2092,2.2062,2.2071,2.2099,2.2102,2.2146,2.2096,2.2133,2.2134,2.2126,2.2232,2.2248,2.2324,2.2198,2.22,2.2201,0,2.1953,2.1975,2.2046,2.2057,2.207,2.2102,2.2126,2.2153,2.2168,2.2167,2.2184,2.217,2.221,2.2172,2.2226,2.2192,2.2207,2.221,2.2213,2.2214,2.217,2.2233,2.2348,2.2358,2.2217,2.2216,2.2215,0,2.2028,2.2077,2.2124,2.2135,2.2149,2.2172,2.2179,2.2192,2.2209,2.2231,2.2241,2.2268,2.2281,2.2302,2.2294,2.2267,2.235,2.2311,2.2348,2.2348,2.2365,2.2363,2.248,2.2379,2.2379,2.2378,2.2378,0,2.2123,2.2167,2.2158,2.2188,2.2235,2.2224,2.2271,2.2276,2.2287,2.2316,2.2297,2.2324,2.2314,2.2341,2.2336,2.238,2.2387,2.2386,2.2384,2.2387,2.2386,2.2394,2.2388,2.2381,2.2381,2.238,2.238,0,2.2215,2.2212,2.2261,2.2271,2.2274,2.2308,2.2316,2.2343,2.2342,2.2379,2.2387,2.2386,2.2416,2.2412,2.2446,2.2442,2.2497,2.2489,2.2491,2.2488,2.2524,2.252,2.2649,2.2664,2.2555,2.2556,2.2557,0,2.2275,2.2307,2.2319,2.2337,2.2345,2.2375,2.2391,2.2381,2.2399,2.2418,2.2442,2.2471,2.2492,2.2542,2.2544,2.2569,2.2561,2.2604,2.2564,2.2565,2.2558,2.2555,2.2557,2.2611,2.2612,2.2614,2.2614,0,2.2379,2.2375,2.24,2.2423,2.2443,2.2462,2.2478,2.2494,2.2485,2.2506,2.2536,2.2553,2.2587,2.2614,2.2638,2.2645,2.2628,2.2627,2.2636,2.2638,2.2636,2.2635,2.2509,2.2624,2.2623,2.2622,2.2622,2.2621,2.2455,2.2481,2.2493,2.2521,2.2532,2.2547,2.2572,2.2574,2.2599,2.2624,2.2618,2.2651,2.2664,2.2693,2.2703,2.2728,2.2712,2.2727,2.273,2.2733,2.2736,2.2634,2.2733,2.2733,2.2733,2.2732,2.2732,0,2.2556,2.2562,2.2587,2.261,2.2631,2.2613,2.263,2.2648,2.2678,2.2691,2.2713,2.2746,2.2773,2.2776,2.2801,2.2821,2.2813,2.2827,2.2824,2.2826,2.275,2.2738,2.2833,2.2833,2.2833,2.2832,2.2832,2.2832,2.2611,2.2654,2.2651,2.2699,2.2705,2.2737,2.2748,2.2761,2.2771,2.2809,2.2831,2.2833,2.2842,2.2867,2.289,2.289,2.2899,2.2915,2.2912,2.2841,2.2831,2.2822,2.281,2.2918,2.2918,2.2985,2.2986,2.2986]},{"header":{"parameterUnit":"m.s-1","parameterCategory":1,"la1":30.2991,"la2":30.254,"lo1":-89.0895,"lo2":-89.0444,"dy":0.0017,"dx":0.0017,"nx":28,"ny":28,"refTime":"2024-06-21T09:00:00:Z","depth":0,"parameterNumber":3,"parameterNumberName":"V-component_of_WINDS"},"data":[0,0,0,0,0,0,0,0,0,0,0,0,0,0,0,0,0,0,0,0,0,0,0,0,0,0,0,0,0,0,0,0,0,0,0,0,0,0,0,0,0,0,0,0,0,0,0,0,0,0,0,0,0,0,0,0,0,0,1.8931,1.8932,0,1.9093,1.9095,1.9097,1.9128,1.9126,1.9125,1.9124,1.9287,1.9293,1.9298,0,0,0,0,0,0,0,0,0,0,0,0,0,1.8643,1.8648,1.893,1.8933,1.8935,1.9093,1.9095,1.9097,1.9128,1.9126,1.9125,1.9123,1.9286,1.9292,1.9299,0,0,0,0,0,0,0,0,0,0,0,0,0,1.8783,1.865,1.893,1.8969,1.8974,1.9092,1.9095,1.9098,1.9128,1.9126,1.9124,1.9123,1.9283,1.9292,1.93,1.939,0,0,1.9325,1.9329,0,0,0,0,0,0,0,0,1.8775,1.8793,1.8961,1.8967,1.8972,1.9088,1.9054,1.9196,1.9129,1.907,1.9124,1.9122,1.9223,1.9236,1.927,1.9398,1.9405,1.9326,1.9331,1.9335,1.9337,0,0,0,0,0,0,0,1.8765,1.8787,1.8995,1.8964,1.897,1.8977,1.8995,1.9081,1.9155,1.9075,1.9077,1.9096,1.9225,1.9262,1.9274,1.9407,1.9326,1.9333,1.9338,1.9342,1.9616,1.9618,0,0,0,0,0,0,1.8749,1.8778,1.899,1.9,1.8867,1.8984,1.9004,1.9053,1.9154,1.9168,1.9098,1.9097,1.9249,1.9265,1.928,1.9392,1.9335,1.9342,1.9347,1.9613,1.9616,1.9618,0,0,0,0,0,0,1.8743,1.8768,1.8983,1.889,1.8918,1.8991,1.9046,1.9057,1.9094,1.9172,1.9185,1.9122,1.9248,1.9269,1.9363,1.9398,1.9346,1.9354,1.9611,1.9614,1.9617,1.9617,0,0,0,0,0,0,1.8734,1.8765,1.8801,1.889,1.8923,1.9064,1.9048,1.9062,1.9109,1.911,1.9198,1.9211,1.9248,1.935,1.9371,1.9409,1.936,1.9608,1.9612,1.9616,1.9614,1.962,1.9625,0,0,0,0,0,1.8724,1.8794,1.8803,1.8828,1.8969,1.9066,1.9084,1.9126,1.9112,1.9148,1.9197,1.9208,1.9391,1.9359,1.9383,1.9424,1.9606,1.9611,1.9616,1.9612,1.9619,1.9625,0,0,0,0,0,0,1.8706,1.8807,1.8817,1.8919,1.8983,1.9071,1.9118,1.9133,1.9202,1.92,1.9249,1.9268,1.9359,1.9401,1.9364,1.9516,1.9497,1.9507,1.9486,1.9494,1.9499,1.9487,1.9367,0,0,0,0,0,1.8714,1.8785,1.8869,1.895,1.8982,1.9044,1.9088,1.9115,1.9183,1.9211,1.9267,1.9333,1.9405,1.9451,1.9522,1.962,1.964,1.966,1.9666,1.967,1.9678,1.9732,1.9742,1.9635,1.9635,1.9635,0,0,1.8731,1.8795,1.8836,1.8948,1.9001,1.9073,1.9067,1.9143,1.9196,1.9222,1.9315,1.9358,1.9434,1.953,1.9575,1.9568,1.9712,1.9676,1.9679,1.9685,1.9739,1.9749,1.9758,1.9639,1.9638,1.9638,0,0,1.8799,1.8854,1.8928,1.8982,1.9063,1.9104,1.9121,1.9206,1.9236,1.933,1.9351,1.9414,1.9538,1.9591,1.9635,1.9721,1.9733,1.9743,1.9771,1.9824,1.9832,1.984,1.9871,1.9881,1.9751,1.9751,1.9751,0,1.8809,1.8919,1.8963,1.9039,1.9087,1.9114,1.9188,1.9238,1.9338,1.937,1.936,1.9516,1.9569,1.9678,1.9699,1.9733,1.9754,1.9733,1.9828,1.9836,1.9844,1.9873,1.9885,1.9751,1.9751,1.9751,1.9751,0,1.8928,1.9003,1.9052,1.9149,1.9203,1.9277,1.9331,1.938,1.9402,1.9443,1.9538,1.9603,1.9687,1.9715,1.9737,1.9827,1.9819,1.9818,1.98,1.9854,1.9882,1.9894,1.9752,1.9752,1.9752,1.9752,0,0,1.8989,1.9109,1.9127,1.917,1.9262,1.9321,1.9395,1.9479,1.9519,1.9586,1.965,1.9754,1.9753,1.9802,1.983,1.9876,1.994,1.9869,1.9872,1.988,2.0043,2.0043,2.0056,1.9949,1.9951,1.9953,2.0036,0,1.9067,1.9203,1.9245,1.9358,1.9428,1.9455,1.952,1.9582,1.9623,1.9687,1.9731,1.9804,1.9798,1.9827,1.9874,1.9922,1.9973,1.9917,2.0007,2.001,1.9988,2.0071,2.0072,2.0148,2.0048,2.005,2.0051,0,1.9177,1.9247,1.9368,1.945,1.9481,1.9539,1.9618,1.968,1.975,1.9776,1.9831,1.9855,1.9933,1.991,2.0018,1.9978,2.0018,2.0047,2.0051,2.0061,2.0034,2.0083,2.0173,2.0184,2.0069,2.0068,2.0067,0,1.921,1.9334,1.9422,1.9459,1.9557,1.9597,1.964,1.9709,1.9756,1.9825,1.9856,1.9932,1.9974,2.0032,2.0076,2.0055,2.018,2.016,2.0203,2.0202,2.0228,2.0226,2.0325,2.0253,2.0253,2.0253,2.0252,0,1.9293,1.9365,1.9438,1.9493,1.9574,1.9621,1.97,1.9744,1.9805,1.9867,1.9895,1.9952,2.0007,2.0071,2.0106,2.0189,2.0208,2.023,2.0239,2.0228,2.0225,2.0255,2.0251,2.0256,2.0255,2.0254,2.0254,0,1.9343,1.9395,1.9493,1.9578,1.9601,1.9657,1.9729,1.9782,1.9823,1.9902,1.9923,1.9987,2.0065,2.0114,2.0212,2.0235,2.0327,2.0334,2.0303,2.0307,2.0347,2.0343,2.0469,2.0488,2.0403,2.0403,2.0404,0,1.9393,1.9449,1.954,1.9585,1.9628,1.9698,1.9747,1.9795,1.9844,1.9928,1.9971,2.005,2.0116,2.0238,2.0293,2.0368,2.0377,2.0416,2.0388,2.0376,2.0377,2.0374,2.0379,2.042,2.0421,2.0422,2.0422,0,1.9476,1.9498,1.9568,1.9646,1.9703,1.9767,1.9831,1.9865,1.9923,1.9977,2.0057,2.0108,2.0208,2.0287,2.0366,2.0409,2.0425,2.043,2.0444,2.0434,2.0414,2.0426,2.0316,2.0427,2.0427,2.0426,2.0426,2.0426,1.9527,1.9579,1.9651,1.9727,1.978,1.9839,1.9893,1.9941,2.0009,2.0095,2.0118,2.0202,2.027,2.038,2.0423,2.0489,2.0484,2.0503,2.0509,2.0513,2.0513,2.0404,2.0503,2.0503,2.0503,2.0503,2.0503,0,1.9611,1.9659,1.9729,1.9817,1.9877,1.9888,1.9958,2.0007,2.008,2.0143,2.0208,2.0299,2.0375,2.0436,2.0514,2.0554,2.0563,2.0573,2.057,2.058,2.0513,2.0494,2.0564,2.0564,2.0564,2.0564,2.0564,2.0564,1.9662,1.975,1.9781,1.9894,1.9941,2.0024,2.0064,2.0117,2.0168,2.0269,2.0333,2.0372,2.0434,2.0516,2.0586,2.0602,2.0629,2.0637,2.0654,2.0591,2.0584,2.0578,2.056,2.0642,2.0643,2.0715,2.0716,2.0716]}]]